SCP
-0 -0 -0 -0 0 0 0 0 0 0 0 0 0 0 -0 -0 -0 -0 -0 -0 -0 -0 -0 -0 0 0 0 0 0 0 0 0 0 0 0 0 0 0 0 0 0 0 -0
-0 -0 -0 0 0 0 0 0 0 0 0 0 0 0 0 0 0 -0 -0 -0 -0 -0 -0 -0 -0 0 0 0 0 0 0 0 0 0 0 0 0 0 0 0 0 0 0
-0 -0 -0 0 0 0 0 0 0 0 0 0 0 0 0 0 0 0 0 -0 -0 -0 -0 -0 -0 -0 -0 0 0 0 0 0 0 0 0 0 0 0 0 0 0 0 0
-0 -0 -0 0 0 0 0 0 0 0 0 0 0 0 0 0 0 0 0 0 0 0 0 0 0 -0 -0 0 0 0 0 0 0 0 0 0 0 0 0 0 0 0 0
-0 -0 -0 -0 0 0 0 0 0 0 0 0 0 0 0 0 0 0 0 0 0 0 0 0 0 0 0 0 0 0 0 0 0 0 0 0 0 0 0 0 0 0 0
-0 -0 -0 0 0 0 0 0 0 0 0 0 0 0 0 0 0 0 0 0 0 0 0 0 0 0 0 0 0 0 0 0 0 0 0 0 0 0 0 0 0 0 0
-0 0 0 0 0 0 0 0 0 0 0 0 0 0 0 0 0 0 0 0 0 0 0 0 0 0 0 0 0 0 0 -0 -0 0 0 0 0 1 1 1 0 0 0
0 -0 0 0 0 0 0 0 0 0 0 0 0 0 0 0 0 0 0 0 0 0 0 0 0 -0 -0 -0 -0 -0 -0 -0 -0 0 0 0 0 0 0 0 0 1 1
0 -0 0 0 0 0 0 0 0 0 0 0 0 0 0 0 -0 0 0 0 0 0 0 0 0 -0 -0 -0 -0 -0 -0 -0 0 0 0 0 0 0 0 0 0 0 0
0 -0 0 0 0 0 0 0 0 0 0 0 0 0 0 0 0 0 0 0 0 0 0 0 0 -0 -0 -0 -0 -0 -0 -0 0 0 0 0 0 0 0 0 0 0 0
0 0 0 0 0 0 0 0 0 0 0 0 0 0 0 0 0 0 0 0 0 0 0 0 0 0 0 0 0 -0 0 0 0 0 0 0 0 0 0 0 0 0 0
0 0 0 0 0 0 0 0 0 0 0 0 0 0 0 0 0 0 0 0 0 0 0 0 0 0 0 0 0 0 0 0 0 0 0 0 0 0 0 0 0 0 0
0 0 0 0 0 0 0 0 0 0 0 0 0 0 0 0 0 0 0 0 0 0 0 0 0 0 0 0 0 0 0 0 0 0 0 0 0 0 0 0 0 0 0
0 0 0 0 0 0 0 0 0 0 0 0 0 0 0 0 0 0 0 0 0 0 0 0 0 0 0 0 0 0 0 0 0 0 0 0 0 0 0 0 0 0 0
0 0 0 0 0 0 0 0 0 0 0 0 0 0 0 0 0 0 0 0 0 0 0 0 0 0 0 0 0 0 0 0 0 0 0 0 0 0 0 0 0 0 0
0 0 0 0 0 0 0 0 0 0 0 0 0 0 0 0 0 0 0 0 0 0 0 0 0 0 0 0 0 0 0 0 0 0 0 0 0 0 0 -0 0 0 0
0 0 0 0 0 0 0 0 0 0 0 0 0 0 0 0 0 0 0 0 0 0 0 0 0 0 0 0 0 0 0 0 0 0 0 0 0 0 0 0 -0 0 -0
0 0 0 0 0 0 0 0 0 0 0 0 0 0 0 0 0 0 0 0 0 0 0 0 0 0 0 0 -0 0 0 0 0 0 0 0 0 0 0 0 0 -0 0
1 0 0 0 0 0 0 0 0 0 0 0 0 0 0 0 0 0 0 0 0 0 0 0 0 0 0 0 0 0 0 0 0 0 0 0 0 0 0 0 0 0 0
0 0 0 0 0 0 0 0 0 0 0 0 0 0 0 0 0 0 0 0 0 0 0 0 0 0 0 0 0 -0 0 0 0 0 0 0 0 0 0 0 0 0 0
0 1 0 0 0 0 0 0 0 0 0 0 0 0 0 0 0 0 0 0 0 0 0 0 0 0 0 0 0 0 0 0 0 0 0 0 0 0 0 0 0 0 0
1 1 0 0 0 0 0 0 -0 0 0 0 0 0 0 0 0 0 0 0 0 0 0 0 0 0 0 0 0 0 0 0 0 0 0 0 0 0 0 0 0 0 0
1 1 1 0 0 0 0 0 0 0 0 0 0 0 0 0 0 0 0 0 0 0 0 0 0 0 0 0 -0 0 0 0 0 0 0 0 0 0 0 0 0 0 0
1 1 1 0 0 0 0 -0 0 0 0 0 0 0 0 0 0 0 0 0 0 0 0 0 0 0 0 0 0 0 0 0 0 0 0 0 0 0 0 0 0 0 0
2 1 1 1 0 0 0 -0 0 0 0 1 0 0 0 0 0 0 0 0 0 0 0 0 0 0 0 0 0 0 0 0 0 0 0 0 0 0 0 0 0 0 0
1 1 1 1 0 0 0 0 0 0 0 0 0 0 0 0 0 0 0 0 0 0 0 0 0 0 0 0 0 0 0 0 0 0 0 0 0 0 0 0 0 0 0
Wind_Speed_500mb
13 19 16 11 11 9 9 10 11 13 15 19 23 19 19 22 22 23 27 29 31 29 24 21 20 16 18 20 22 19 20 18 17 15 12 14 14 13 14 18 18 14 18
17 18 11 11 13 11 11 10 10 10 16 19 17 17 19 18 19 23 28 29 27 25 24 23 19 17 13 15 21 22 22 22 20 18 18 13 8 4 7 13 16 22 17
8 7 9 13 12 9 8 8 8 13 17 14 9 14 16 15 18 21 24 25 23 22 22 22 21 17 16 13 14 18 21 23 22 20 18 19 14 24 20 13 17 22 23
17 2 12 20 16 10 7 7 9 14 19 18 12 12 10 11 14 18 20 21 20 19 21 19 20 20 19 18 14 12 16 19 20 21 18 16 13 30 28 12 17 18 18
18 6 6 14 21 9 8 11 14 19 22 21 15 10 10 11 14 18 19 17 15 18 19 19 20 21 19 17 17 14 10 13 15 14 12 5 19 24 23 16 15 22 20
23 4 3 22 14 6 7 8 13 19 25 23 13 6 7 10 13 14 12 13 16 19 19 20 21 22 22 18 15 13 11 5 7 8 11 9 27 22 24 21 24 25 29
15 10 12 28 20 12 7 6 12 21 26 21 13 8 8 11 13 14 14 18 21 25 25 23 21 20 19 18 18 14 8 0 6 9 10 29 14 14 13 27 33 36 34
16 8 11 24 20 19 8 10 13 22 25 21 16 13 13 18 21 24 18 20 28 26 23 21 21 20 19 18 17 15 8 3 9 7 20 19 19 20 30 31 32 27 34
11 8 12 19 12 11 10 13 19 22 25 23 25 24 24 23 33 31 28 37 35 29 25 26 26 25 21 21 25 18 4 6 12 18 9 19 10 18 24 32 19 13 11
10 7 1 5 5 3 9 18 20 22 27 28 26 23 27 25 26 27 28 43 36 36 29 33 29 27 23 23 29 27 12 11 12 14 12 10 10 12 18 28 25 17 14
7 6 9 9 5 15 5 24 24 23 23 25 27 15 32 21 14 17 26 35 38 41 40 40 37 30 28 24 20 21 17 14 19 8 13 15 18 24 27 28 21 21 21
6 8 11 12 11 13 5 20 19 15 16 21 28 17 14 14 18 20 23 29 34 34 36 37 34 32 21 13 21 16 17 19 8 20 20 23 23 31 36 25 23 24 26
10 8 8 12 27 11 16 5 7 5 10 18 28 22 18 15 17 12 13 19 25 27 27 29 26 29 23 20 10 7 10 5 12 22 19 15 20 29 23 13 10 13 17
15 13 12 11 15 18 11 4 7 5 4 10 16 25 10 14 9 19 19 18 17 22 26 26 27 28 24 23 16 15 10 12 14 18 16 13 21 27 22 15 16 19 23
16 17 17 14 18 14 26 8 9 3 8 6 9 23 18 12 10 14 19 18 21 19 24 28 31 33 28 23 19 15 13 8 6 10 23 25 23 20 19 17 22 28 32
24 22 18 13 10 13 20 23 15 9 4 9 13 25 12 8 16 13 18 18 23 18 24 24 26 28 27 23 19 22 15 10 6 9 16 21 17 19 14 16 27 30 31
26 25 17 16 9 10 5 10 12 7 11 8 5 19 16 19 23 18 15 20 24 23 22 20 21 21 25 15 18 13 16 10 5 9 11 19 15 17 16 29 25 36 41
28 33 14 15 5 15 7 12 12 20 12 5 7 12 19 11 22 14 12 21 19 23 21 22 21 26 22 26 8 12 6 4 13 11 8 15 16 23 30 27 37 41 41
32 30 28 27 9 11 14 14 16 7 2 10 6 2 19 11 13 24 15 25 25 20 18 27 20 21 21 30 16 9 12 11 13 9 14 17 24 17 26 35 30 36 34
39 35 27 22 16 10 10 7 3 5 5 8 8 8 16 10 10 18 12 24 23 21 28 29 23 24 23 30 22 21 16 19 12 15 20 19 22 25 31 31 38 34 26
44 40 27 26 19 14 11 3 9 13 10 7 12 15 16 8 13 18 11 14 18 20 22 28 23 17 23 28 36 17 22 16 16 21 18 21 21 22 27 37 29 28 36
46 42 26 30 21 17 11 6 17 16 11 14 16 15 17 14 9 10 20 11 25 9 14 33 24 21 16 19 33 29 26 5 17 29 20 28 17 25 37 24 30 30 39
44 42 26 30 22 18 11 9 2 6 9 8 10 12 6 10 11 12 15 16 23 12 15 24 19 25 19 15 14 22 16 14 41 31 24 28 30 43 41 35 32 31 45
40 38 24 28 23 19 15 6 11 10 2 10 4 15 22 18 17 13 13 16 17 18 12 11 22 21 16 18 15 11 24 30 36 42 44 36 31 38 40 32 34 43 34
34 27 20 26 21 17 19 17 11 5 4 6 9 16 16 13 17 7 9 16 18 19 16 24 23 27 29 21 26 31 30 30 33 40 50 46 49 51 41 47 50 49 51
21 21 21 20 14 16 22 17 13 17 13 8 10 12 11 13 19 10 15 27 19 17 16 23 26 29 33 37 38 37 37 41 47 47 54 63 64 65 57 50 50 49 56
Wind_Direction_500mb
126 44 27 23 13 7 5 7 7 9 4 351 348 344 331 332 337 346 349 348 343 341 339 331 319 302 288 292 291 277 279 278 253 254 238 225 224 234 231 228 226 210 246
103 43 9 19 11 9 9 17 23 12 356 349 345 327 321 327 336 341 344 348 351 352 357 353 342 334 318 286 280 283 273 268 272 258 256 251 217 224 270 260 229 209 235
7 315 50 28 14 12 20 23 27 357 354 351 327 312 319 330 336 340 345 347 352 7 9 7 358 352 335 314 287 275 277 276 269 267 260 252 252 277 270 293 264 234 236
128 357 358 353 352 8 27 27 4 360 358 357 332 319 323 330 336 342 347 352 1 8 9 4 356 355 350 338 326 293 273 275 281 264 265 249 283 258 250 275 286 255 244
173 208 258 360 346 1 13 5 6 360 356 348 338 324 333 338 341 346 352 2 4 358 353 347 341 339 338 336 335 329 304 272 267 276 254 163 248 216 220 252 271 265 246
155 142 98 2 347 352 352 2 0 357 355 353 358 333 327 333 343 352 359 360 347 344 336 332 330 330 330 325 320 323 330 285 237 154 359 281 239 253 256 260 273 274 264
125 6 5 2 15 334 338 6 1 0 358 360 8 9 357 356 352 355 354 347 345 342 337 335 338 339 334 329 320 317 316 228 179 142 334 202 228 252 242 278 285 273 257
71 290 324 350 350 11 7 7 358 4 4 13 20 18 14 20 10 13 359 3 350 345 346 349 348 347 342 340 338 325 319 196 137 112 294 250 242 253 268 278 286 263 250
64 93 317 332 352 45 68 32 5 12 27 34 32 42 37 31 23 7 5 4 355 354 356 357 356 356 1 24 19 8 18 174 103 53 261 254 263 263 280 289 296 273 249
91 58 208 305 49 5 59 29 11 22 28 30 29 43 23 11 17 357 355 355 358 5 10 9 18 31 35 18 19 23 85 141 43 34 205 229 260 278 287 286 287 286 273
26 63 105 164 202 157 336 29 6 20 20 21 5 38 16 12 358 347 325 351 358 6 4 7 19 21 13 6 348 30 54 32 3 282 273 294 300 306 305 290 265 271 278
108 128 181 138 171 177 216 6 8 20 344 350 354 47 359 28 340 357 340 352 356 0 6 357 358 358 346 346 359 353 351 350 276 313 274 272 286 301 302 276 271 274 277
148 157 118 198 167 151 164 85 157 324 6 342 338 29 19 27 344 9 350 1 351 351 338 356 359 332 2 348 14 320 289 310 314 294 267 267 299 315 303 299 290 290 293
163 149 115 191 170 191 171 104 353 202 52 278 327 344 42 360 35 15 343 10 338 346 353 347 341 345 4 6 338 345 316 287 292 344 324 306 323 330 314 295 301 306 308
170 151 192 164 179 203 173 204 209 159 202 54 302 320 25 359 43 22 348 3 342 359 360 352 343 355 4 349 350 330 309 272 329 308 297 300 317 330 343 310 309 308 307
192 158 197 190 175 163 179 186 195 162 253 90 279 310 342 17 13 63 0 352 332 20 1 357 355 350 356 353 346 346 355 12 298 280 315 322 306 331 341 341 332 322 318
197 187 177 205 139 196 202 128 151 224 209 217 298 332 358 348 9 59 360 332 350 31 347 355 351 349 354 360 351 357 358 330 303 291 279 324 335 332 330 330 323 320 318
205 206 181 178 162 149 144 152 145 227 251 130 68 301 311 355 331 5 352 327 11 19 349 346 343 354 8 347 329 323 295 353 333 330 283 279 309 325 322 323 322 317 320
207 212 168 200 184 132 148 133 195 236 237 106 262 318 285 340 317 337 5 329 8 353 342 333 357 4 7 335 348 314 338 328 294 332 285 295 295 318 286 299 300 306 309
204 214 201 186 201 187 152 170 121 351 35 75 269 275 284 304 307 307 14 343 350 342 339 356 1 5 2 335 3 326 301 290 265 300 269 274 277 278 294 298 298 314 318
205 210 209 204 195 204 189 197 10 29 357 295 301 258 271 292 275 311 331 341 309 333 339 333 360 7 11 336 354 358 318 259 298 328 328 333 319 293 289 295 310 294 286
212 210 213 209 205 208 186 153 210 221 220 240 223 282 290 298 282 319 305 334 309 33 339 336 354 357 359 359 352 359 356 238 358 4 305 300 306 289 317 302 302 313 312
213 207 217 212 209 217 169 243 265 35 347 355 289 348 339 346 307 301 302 304 318 342 340 333 336 327 353 3 352 332 348 331 325 331 333 320 313 309 310 311 313 306 308
205 207 227 211 214 215 187 190 246 243 345 299 302 277 288 293 325 302 309 303 304 313 335 317 290 328 335 321 341 321 317 311 300 303 305 301 303 313 314 302 300 292 303
194 203 221 199 214 202 200 191 248 346 257 313 278 300 344 314 321 335 298 286 288 295 295 303 326 323 326 311 307 299 292 293 292 302 304 304 292 295 289 292 303 291 300
168 184 187 193 213 208 198 213 214 224 232 220 292 18 349 323 325 293 283 309 289 317 323 308 307 311 304 307 303 302 299 297 298 298 298 300 299 298 300 293 297 299 300
Wind_Speed_850mb
13 19 16 11 11 9 9 10 11 13 15 19 23 19 19 22 22 23 27 29 31 29 24 21 20 16 18 20 22 19 20 18 17 15 12 14 14 13 14 18 18 14 18
17 18 11 11 13 11 11 10 10 10 16 19 17 17 19 18 19 23 28 29 27 25 24 23 19 17 13 15 21 22 22 22 20 18 18 13 8 4 7 13 16 22 17
8 7 9 13 12 9 8 8 8 13 17 14 9 14 16 15 18 21 24 25 23 22 22 22 21 17 16 13 14 18 21 23 22 20 18 19 14 24 20 13 17 22 23
17 2 12 20 16 10 7 7 9 14 19 18 12 12 10 11 14 18 20 21 20 19 21 19 20 20 19 18 14 12 16 19 20 21 18 16 13 30 28 12 17 18 18
18 6 6 14 21 9 8 11 14 19 22 21 15 10 10 11 14 18 19 17 15 18 19 19 20 21 19 17 17 14 10 13 15 14 12 5 19 24 23 16 15 22 20
23 4 3 22 14 6 7 8 13 19 25 23 13 6 7 10 13 14 12 13 16 19 19 20 21 22 22 18 15 13 11 5 7 8 11 9 27 22 24 21 24 25 29
15 10 12 28 20 12 7 6 12 21 26 21 13 8 8 11 13 14 14 18 21 25 25 23 21 20 19 18 18 14 8 0 6 9 10 29 14 14 13 27 33 36 34
16 8 11 24 20 19 8 10 13 22 25 21 16 13 13 18 21 24 18 20 28 26 23 21 21 20 19 18 17 15 8 3 9 7 20 19 19 20 30 31 32 27 34
11 8 12 19 12 11 10 13 19 22 25 23 25 24 24 23 33 31 28 37 35 29 25 26 26 25 21 21 25 18 4 6 12 18 9 19 10 18 24 32 19 13 11
10 7 1 5 5 3 9 18 20 22 27 28 26 23 27 25 26 27 28 43 36 36 29 33 29 27 23 23 29 27 12 11 12 14 12 10 10 12 18 28 25 17 14
7 6 9 9 5 15 5 24 24 23 23 25 27 15 32 21 14 17 26 35 38 41 40 40 37 30 28 24 20 21 17 14 19 8 13 15 18 24 27 28 21 21 21
6 8 11 12 11 13 5 20 19 15 16 21 28 17 14 14 18 20 23 29 34 34 36 37 34 32 21 13 21 16 17 19 8 20 20 23 23 31 36 25 23 24 26
10 8 8 12 27 11 16 5 7 5 10 18 28 22 18 15 17 12 13 19 25 27 27 29 26 29 23 20 10 7 10 5 12 22 19 15 20 29 23 13 10 13 17
15 13 12 11 15 18 11 4 7 5 4 10 16 25 10 14 9 19 19 18 17 22 26 26 27 28 24 23 16 15 10 12 14 18 16 13 21 27 22 15 16 19 23
16 17 17 14 18 14 26 8 9 3 8 6 9 23 18 12 10 14 19 18 21 19 24 28 31 33 28 23 19 15 13 8 6 10 23 25 23 20 19 17 22 28 32
24 22 18 13 10 13 20 23 15 9 4 9 13 25 12 8 16 13 18 18 23 18 24 24 26 28 27 23 19 22 15 10 6 9 16 21 17 19 14 16 27 30 31
26 25 17 16 9 10 5 10 12 7 11 8 5 19 16 19 23 18 15 20 24 23 22 20 21 21 25 15 18 13 16 10 5 9 11 19 15 17 16 29 25 36 41
28 33 14 15 5 15 7 12 12 20 12 5 7 12 19 11 22 14 12 21 19 23 21 22 21 26 22 26 8 12 6 4 13 11 8 15 16 23 30 27 37 41 41
32 30 28 27 9 11 14 14 16 7 2 10 6 2 19 11 13 24 15 25 25 20 18 27 20 21 21 30 16 9 12 11 13 9 14 17 24 17 26 35 30 36 34
39 35 27 22 16 10 10 7 3 5 5 8 8 8 16 10 10 18 12 24 23 21 28 29 23 24 23 30 22 21 16 19 12 15 20 19 22 25 31 31 38 34 26
44 40 27 26 19 14 11 3 9 13 10 7 12 15 16 8 13 18 11 14 18 20 22 28 23 17 23 28 36 17 22 16 16 21 18 21 21 22 27 37 29 28 36
46 42 26 30 21 17 11 6 17 16 11 14 16 15 17 14 9 10 20 11 25 9 14 33 24 21 16 19 33 29 26 5 17 29 20 28 17 25 37 24 30 30 39
44 42 26 30 22 18 11 9 2 6 9 8 10 12 6 10 11 12 15 16 23 12 15 24 19 25 19 15 14 22 16 14 41 31 24 28 30 43 41 35 32 31 45
40 38 24 28 23 19 15 6 11 10 2 10 4 15 22 18 17 13 13 16 17 18 12 11 22 21 16 18 15 11 24 30 36 42 44 36 31 38 40 32 34 43 34
34 27 20 26 21 17 19 17 11 5 4 6 9 16 16 13 17 7 9 16 18 19 16 24 23 27 29 21 26 31 30 30 33 40 50 46 49 51 41 47 50 49 51
21 21 21 20 14 16 22 17 13 17 13 8 10 12 11 13 19 10 15 27 19 17 16 23 26 29 33 37 38 37 37 41 47 47 54 63 64 65 57 50 50 49 56
Wind_Direction_850mb
126 44 27 23 13 7 5 7 7 9 4 351 348 344 331 332 337 346 349 348 343 341 339 331 319 302 288 292 291 277 279 278 253 254 238 225 224 234 231 228 226 210 246
103 43 9 19 11 9 9 17 23 12 356 349 345 327 321 327 336 341 344 348 351 352 357 353 342 334 318 286 280 283 273 268 272 258 256 251 217 224 270 260 229 209 235
7 315 50 28 14 12 20 23 27 357 354 351 327 312 319 330 336 340 345 347 352 7 9 7 358 352 335 314 287 275 277 276 269 267 260 252 252 277 270 293 264 234 236
128 357 358 353 352 8 27 27 4 360 358 357 332 319 323 330 336 342 347 352 1 8 9 4 356 355 350 338 326 293 273 275 281 264 265 249 283 258 250 275 286 255 244
173 208 258 360 346 1 13 5 6 360 356 348 338 324 333 338 341 346 352 2 4 358 353 347 341 339 338 336 335 329 304 272 267 276 254 163 248 216 220 252 271 265 246
155 142 98 2 347 352 352 2 0 357 355 353 358 333 327 333 343 352 359 360 347 344 336 332 330 330 330 325 320 323 330 285 237 154 359 281 239 253 256 260 273 274 264
125 6 5 2 15 334 338 6 1 0 358 360 8 9 357 356 352 355 354 347 345 342 337 335 338 339 334 329 320 317 316 228 179 142 334 202 228 252 242 278 285 273 257
71 290 324 350 350 11 7 7 358 4 4 13 20 18 14 20 10 13 359 3 350 345 346 349 348 347 342 340 338 325 319 196 137 112 294 250 242 253 268 278 286 263 250
64 93 317 332 352 45 68 32 5 12 27 34 32 42 37 31 23 7 5 4 355 354 356 357 356 356 1 24 19 8 18 174 103 53 261 254 263 263 280 289 296 273 249
91 58 208 305 49 5 59 29 11 22 28 30 29 43 23 11 17 357 355 355 358 5 10 9 18 31 35 18 19 23 85 141 43 34 205 229 260 278 287 286 287 286 273
26 63 105 164 202 157 336 29 6 20 20 21 5 38 16 12 358 347 325 351 358 6 4 7 19 21 13 6 348 30 54 32 3 282 273 294 300 306 305 290 265 271 278
108 128 181 138 171 177 216 6 8 20 344 350 354 47 359 28 340 357 340 352 356 0 6 357 358 358 346 346 359 353 351 350 276 313 274 272 286 301 302 276 271 274 277
148 157 118 198 167 151 164 85 157 324 6 342 338 29 19 27 344 9 350 1 351 351 338 356 359 332 2 348 14 320 289 310 314 294 267 267 299 315 303 299 290 290 293
163 149 115 191 170 191 171 104 353 202 52 278 327 344 42 360 35 15 343 10 338 346 353 347 341 345 4 6 338 345 316 287 292 344 324 306 323 330 314 295 301 306 308
170 151 192 164 179 203 173 204 209 159 202 54 302 320 25 359 43 22 348 3 342 359 360 352 343 355 4 349 350 330 309 272 329 308 297 300 317 330 343 310 309 308 307
192 158 197 190 175 163 179 186 195 162 253 90 279 310 342 17 13 63 0 352 332 20 1 357 355 350 356 353 346 346 355 12 298 280 315 322 306 331 341 341 332 322 318
197 187 177 205 139 196 202 128 151 224 209 217 298 332 358 348 9 59 360 332 350 31 347 355 351 349 354 360 351 357 358 330 303 291 279 324 335 332 330 330 323 320 318
205 206 181 178 162 149 144 152 145 227 251 130 68 301 311 355 331 5 352 327 11 19 349 346 343 354 8 347 329 323 295 353 333 330 283 279 309 325 322 323 322 317 320
207 212 168 200 184 132 148 133 195 236 237 106 262 318 285 340 317 337 5 329 8 353 342 333 357 4 7 335 348 314 338 328 294 332 285 295 295 318 286 299 300 306 309
204 214 201 186 201 187 152 170 121 351 35 75 269 275 284 304 307 307 14 343 350 342 339 356 1 5 2 335 3 326 301 290 265 300 269 274 277 278 294 298 298 314 318
205 210 209 204 195 204 189 197 10 29 357 295 301 258 271 292 275 311 331 341 309 333 339 333 360 7 11 336 354 358 318 259 298 328 328 333 319 293 289 295 310 294 286
212 210 213 209 205 208 186 153 210 221 220 240 223 282 290 298 282 319 305 334 309 33 339 336 354 357 359 359 352 359 356 238 358 4 305 300 306 289 317 302 302 313 312
213 207 217 212 209 217 169 243 265 35 347 355 289 348 339 346 307 301 302 304 318 342 340 333 336 327 353 3 352 332 348 331 325 331 333 320 313 309 310 311 313 306 308
205 207 227 211 214 215 187 190 246 243 345 299 302 277 288 293 325 302 309 303 304 313 335 317 290 328 335 321 341 321 317 311 300 303 305 301 303 313 314 302 300 292 303
194 203 221 199 214 202 200 191 248 346 257 313 278 300 344 314 321 335 298 286 288 295 295 303 326 323 326 311 307 299 292 293 292 302 304 304 292 295 289 292 303 291 300
168 184 187 193 213 208 198 213 214 224 232 220 292 18 349 323 325 293 283 309 289 317 323 308 307 311 304 307 303 302 299 297 298 298 298 300 299 298 300 293 297 299 300